Location: Newark
(44.6028°N, 124.0883°W)
Time: 12:03:58
(UTC+00:00)

Vanguard 1 - Pass Details

Date: 29 October 2019
Orbit: 652 x 3831 km, 34.2° (Epoch: 16 November)

Event Time Altitude Azimuth Distance (km) Brightness Sun altitude
Rises 23:22:13 0° 201° (SSW) 2,977 13.6 15.9°
Reaches altitude 10° 23:25:49 10° 169° (S) 2,225 12.4 15.4°
Maximum altitude 23:27:47 12° 145° (SE) 2,214 12.0 15.2°
Drops below altitude 10° 23:30:01 10° 122° (ESE) 2,563 12.1 14.8°
Sets 23:35:00 0° 94° (E) 4,059 12.8 14.1°
